EW8349 Weather Reports


time (UTC)temp
C
wind
direction
speed
KPH
gust
KPH
rain 1hr
cm
rain 24hr
cm
rain mn
cm
humidity
%
barometer
mb
20191014174008 18 117 0.0 0.0 0.08 0.08 0.08 93 1000.8
20191014173509 18 117 0.0 0.0 0.05 0.05 0.05 93 1000.9
20191014173008 18 117 0.0 0.0 0.05 0.05 0.05 93 1001.0
20191014172508 18 117 0.0 0.0 0.03 0.03 0.03 93 1000.9
20191014172010 18 117 0.0 0.0 0.00 0.00 0.00 93 1001.0
20191014171508 18 117 0.0 0.0 0.00 0.00 0.00 93 1001.0
20191014171006 17 117 0.0 4.8 0.00 0.00 0.00 92 1001.0
20191014170506 17 117 1.6 4.8 0.00 0.00 0.00 92 1001.0
20191014170006 17 117 0.0 4.8 0.00 0.00 0.00 92 1001.1
20191014165506 17 117 0.0 3.2 0.00 0.00 0.00 91 1001.2
20191014165004 17 117 0.0 3.2 0.00 0.00 0.00 91 1001.2
20191014164504 17 117 0.0 3.2 0.00 0.00 0.00 91 1001.2
20191014164003 17 117 0.0 3.2 0.00 0.00 0.00 91 1001.2
20191014163501 17 117 0.0 3.2 0.00 0.00 0.00 90 1001.2
20191014163002 17 117 1.6 9.7 0.00 0.00 0.00 90 1001.2
20191014162501 17 117 1.6 9.7 0.00 0.00 0.00 90 1001.3
20191014162000 17 111 0.0 3.2 0.00 0.00 0.00 90 1001.2
20191014161501 17 111 0.0 3.2 0.00 0.00 0.00 90 1001.2
20191014161000 17 111 0.0 3.2 0.00 0.00 0.00 90 1001.2
20191014160500 17 111 0.0 3.2 0.00 0.00 0.00 90 1001.3
20191014160000 17 111 0.0 0.0 0.00 0.00 0.00 90 1001.2
20191014155458 17 111 0.0 1.6 0.00 0.00 0.00 90 1001.3
20191014154957 17 111 1.6 6.4 0.00 0.00 0.00 90 1001.2
20191014154457 17 111 3.2 6.4 0.00 0.00 0.00 90 1001.4
20191014154001 17 111 1.6 6.4 0.00 0.00 0.00 90 1001.2
20191014153458 17 111 0.0 4.8 0.00 0.00 0.00 90 1001.2
20191014152957 17 111 0.0 0.0 0.00 0.00 0.00 90 1001.2
20191014152458 17 111 0.0 0.0 0.00 0.00 0.00 90 1001.3
20191014151958 16 111 0.0 0.0 0.00 0.00 0.00 90 1001.3
20191014151458 16 111 0.0 0.0 0.00 0.00 0.00 91 1001.3
20191014150957 16 111 0.0 0.0 0.00 0.00 0.00 91 1001.4
20191014150458 16 111 0.0 0.0 0.00 0.00 0.00 91 1001.4
20191014145956 16 111 0.0 0.0 0.00 0.00 0.00 92 1001.4
20191014145456 16 111 0.0 0.0 0.00 0.00 0.00 92 1001.3
20191014144954 16 111 0.0 0.0 0.00 0.00 0.00 92 1001.3
20191014144453 16 111 0.0 0.0 0.00 0.00 0.00 92 1001.4
20191014143953 16 111 0.0 0.0 0.00 0.00 0.00 93 1001.3
20191014143452 16 111 0.0 0.0 0.00 0.00 0.00 93 1001.2
20191014142951 16 111 0.0 0.0 0.00 0.00 0.00 93 1001.2
20191014142449 16 111 0.0 0.0 0.00 0.00 0.00 93 1001.1
20191014141950 16 111 0.0 0.0 0.00 0.00 0.00 93 1001.1
20191014141450 16 111 0.0 0.0 0.00 0.00 0.00 93 1001.1
20191014140950 16 111 0.0 0.0 0.00 0.00 0.00 93 1001.1
20191014140452 16 111 0.0 0.0 0.00 0.00 0.00 93 1001.1
20191014135955 16 111 0.0 0.0 0.00 0.00 0.00 93 1001.1
20191014135448 16 111 0.0 0.0 0.00 0.00 0.00 93 1001.0
20191014134949 16 111 0.0 0.0 0.00 0.00 0.00 93 1000.9
20191014134445 16 111 0.0 0.0 0.00 0.00 0.00 93 1000.8
20191014133945 15 111 0.0 0.0 0.00 0.00 0.00 93 1000.9
20191014133445 15 111 0.0 0.0 0.00 0.00 0.00 93 1000.9
20191014132946 15 111 0.0 0.0 0.00 0.00 0.00 93 1000.9
20191014132444 15 111 0.0 0.0 0.00 0.00 0.00 93 1000.9
20191014131942 15 111 0.0 0.0 0.00 0.00 0.00 94 1000.8
20191014131441 15 111 0.0 0.0 0.00 0.00 0.00 94 1000.8
20191014130943 15 111 0.0 0.0 0.00 0.00 0.00 94 1000.8
20191014130439 15 111 0.0 0.0 0.00 0.00 0.00 94 1000.6
20191014125939 15 111 0.0 0.0 0.00 0.00 0.00 94 1000.8
20191014125440 15 111 0.0 0.0 0.00 0.00 0.00 94 1000.7
20191014124938 15 111 0.0 0.0 0.00 0.00 0.00 94 1000.7
20191014124435 15 111 0.0 0.0 0.00 0.00 0.00 94 1000.6
20191014123935 15 111 0.0 0.0 0.00 0.00 0.00 94 1000.6
20191014123439 15 111 0.0 0.0 0.00 0.00 0.00 94 1000.5
20191014122935 15 111 0.0 0.0 0.00 0.00 0.00 94 1000.4
20191014122434 15 111 0.0 0.0 0.00 0.00 0.00 94 1000.3
20191014121934 15 111 0.0 0.0 0.00 0.00 0.00 94 1000.3
20191014121432 15 111 0.0 0.0 0.00 0.00 0.00 94 1000.4
20191014120931 15 111 0.0 0.0 0.00 0.00 0.00 94 1000.5
20191014120436 15 111 0.0 0.0 0.00 0.00 0.00 94 1000.5
20191014115929 15 111 0.0 0.0 0.00 0.00 0.00 95 1000.3
20191014115428 15 111 0.0 0.0 0.00 0.00 0.00 95 1000.2
20191014114930 15 111 0.0 0.0 0.00 0.00 0.00 95 1000.2
20191014114425 15 111 0.0 0.0 0.00 0.00 0.00 95 1000.3
20191014113925 15 111 0.0 0.0 0.00 0.03 0.00 95 1000.4
20191014113426 15 111 0.0 0.0 0.00 0.03 0.00 95 1000.4
20191014112926 15 111 0.0 0.0 0.00 0.03 0.00 95 1000.2
20191014112424 15 111 0.0 0.0 0.00 0.03 0.00 95 1000.3
20191014111924 15 111 0.0 0.0 0.00 0.03 0.00 95 1000.4
20191014111422 15 111 0.0 0.0 0.00 0.03 0.00 95 1000.3
20191014110924 14 111 0.0 0.0 0.00 0.03 0.00 95 1000.2
20191014110422 14 111 0.0 0.0 0.00 0.03 0.00 95 1000.2
20191014105919 14 111 0.0 0.0 0.00 0.03 0.00 95 1000.3
20191014105421 14 111 0.0 0.0 0.00 0.03 0.00 95 1000.1
20191014104918 14 111 0.0 0.0 0.00 0.03 0.00 95 1000.1
20191014104417 14 111 0.0 0.0 0.00 0.03 0.00 95 1000.1
20191014103918 14 111 0.0 0.0 0.00 0.03 0.00 95 1000.0
20191014103419 14 111 0.0 0.0 0.00 0.03 0.00 95 1000.0
20191014102917 14 111 0.0 0.0 0.00 0.03 0.00 95 999.9
20191014102418 14 111 0.0 0.0 0.00 0.03 0.00 95 1000.1
20191014101917 14 111 0.0 0.0 0.00 0.03 0.00 95 1000.0
20191014101419 14 111 0.0 0.0 0.00 0.03 0.00 95 999.9
20191014100917 14 111 0.0 0.0 0.00 0.03 0.00 95 999.8
20191014100418 14 111 0.0 0.0 0.00 0.03 0.00 95 999.8
20191014095918 14 111 0.0 0.0 0.00 0.03 0.00 95 1000.0
20191014095418 14 111 0.0 0.0 0.00 0.03 0.00 95 1000.1
20191014094917 14 111 0.0 0.0 0.00 0.03 0.00 95 1000.2
20191014094417 14 111 0.0 0.0 0.00 0.03 0.00 95 1000.1
20191014093918 14 111 0.0 0.0 0.00 0.03 0.00 95 999.8
20191014093419 14 111 0.0 0.0 0.00 0.03 0.00 95 1000.2
20191014092918 14 111 0.0 0.0 0.00 0.03 0.00 95 1000.1
20191014092418 14 111 0.0 0.0 0.00 0.03 0.00 95 1000.3
20191014091917 14 111 0.0 0.0 0.00 0.03 0.00 95 1000.3
20191014091418 14 111 0.0 0.0 0.00 0.03 0.00 95 1000.4
20191014090917 14 111 0.0 0.0 0.00 0.03 0.00 95 1000.5
20191014090417 14 111 0.0 0.0 0.00 0.03 0.00 95 1000.6
20191014085917 14 111 0.0 0.0 0.00 0.03 0.00 95 1000.4
20191014085417 14 111 0.0 0.0 0.00 0.03 0.00 95 1000.3
20191014084914 14 111 0.0 0.0 0.00 0.03 0.00 95 1000.2
20191014084413 14 111 0.0 0.0 0.00 0.03 0.00 95 1000.2
20191014083914 14 111 0.0 0.0 0.00 0.03 0.00 95 1000.1
20191014083411 14 111 0.0 0.0 0.00 0.03 0.00 95 1000.1
20191014082910 14 111 0.0 0.0 0.00 0.03 0.00 95 1000.2
20191014082407 14 111 0.0 0.0 0.00 0.03 0.00 95 1000.2
20191014081907 14 111 0.0 0.0 0.00 0.03 0.00 95 1000.2
20191014081405 14 111 0.0 0.0 0.00 0.03 0.00 95 1000.2
20191014080907 13 111 0.0 0.0 0.00 0.03 0.00 95 1000.2
20191014080402 13 111 0.0 0.0 0.00 0.03 0.00 95 1000.5
20191014075901 13 111 0.0 0.0 0.00 0.03 0.00 95 1000.4
20191014075402 13 111 0.0 0.0 0.00 0.03 0.00 95 1000.3
20191014074902 13 111 0.0 0.0 0.00 0.03 0.00 95 1000.2
20191014074359 13 111 0.0 0.0 0.00 0.03 0.00 95 1000.4
20191014073900 13 111 0.0 0.0 0.00 0.03 0.00 95 1000.4
20191014073401 13 111 0.0 0.0 0.00 0.03 0.00 95 1000.3
20191014072900 13 111 0.0 0.0 0.00 0.03 0.00 95 1000.2
20191014072400 13 111 0.0 0.0 0.00 0.03 0.00 95 1000.3
20191014071859 13 111 0.0 0.0 0.00 0.03 0.00 94 1000.4
20191014071359 13 111 0.0 0.0 0.00 0.03 0.00 94 1000.5
20191014070857 13 111 0.0 0.0 0.00 0.03 0.00 94 1000.7
20191014070359 13 111 0.0 0.0 0.00 0.03 0.00 94 1000.6
20191014065857 13 111 0.0 0.0 0.00 0.03 0.00 94 1000.7
20191014065357 13 111 0.0 0.0 0.00 0.03 0.00 94 1000.6
20191014064857 13 111 0.0 0.0 0.00 0.03 0.00 94 1000.5
20191014064357 13 111 0.0 0.0 0.00 0.03 0.00 94 1000.3
20191014063858 13 111 0.0 0.0 0.00 0.03 0.00 94 1000.4
20191014063358 13 111 0.0 0.0 0.00 0.03 0.00 94 1000.6
20191014062859 13 111 0.0 0.0 0.00 0.03 0.00 94 1000.6
20191014062357 13 111 0.0 0.0 0.00 0.03 0.00 94 1000.5
20191014061855 13 111 0.0 0.0 0.00 0.03 0.00 94 1000.6
20191014061357 13 111 0.0 0.0 0.00 0.03 0.00 94 1000.5
20191014060856 13 111 0.0 0.0 0.00 0.03 0.00 94 1000.3
20191014060355 14 111 0.0 0.0 0.00 0.03 0.00 94 1000.5
20191014055855 13 111 0.0 0.0 0.00 0.03 0.00 94 1000.5
20191014055355 13 111 0.0 0.0 0.00 0.03 0.00 94 1000.5
20191014054856 13 111 0.0 0.0 0.00 0.03 0.00 93 1000.5
20191014054355 14 111 0.0 0.0 0.00 0.03 0.00 93 1000.2
20191014053856 14 111 0.0 0.0 0.00 0.03 0.00 93 1000.4
20191014053355 14 111 0.0 0.0 0.00 0.03 0.00 93 1000.2
20191014052853 14 111 0.0 0.0 0.00 0.03 0.00 93 1000.2
20191014052354 14 111 0.0 0.0 0.00 0.03 0.00 93 1000.4
20191014051853 14 111 0.0 0.0 0.00 0.03 0.00 93 1000.4
20191014051353 14 111 0.0 0.0 0.00 0.03 0.00 93 1000.6
20191014050855 14 111 0.0 0.0 0.00 0.03 0.00 93 1000.6
20191014050353 14 111 0.0 0.0 0.00 0.03 0.00 93 1000.5
20191014045853 14 111 0.0 0.0 0.00 0.03 0.03 93 1000.6
20191014045354 14 111 0.0 0.0 0.00 0.03 0.03 92 1000.6
20191014044853 14 111 0.0 0.0 0.00 0.03 0.03 92 1000.7
20191014044353 14 111 0.0 0.0 0.00 0.03 0.03 92 1000.5
20191014043851 14 111 0.0 0.0 0.00 0.03 0.03 92 1000.5
20191014043350 14 111 0.0 0.0 0.00 0.03 0.03 92 1000.5
20191014042853 14 111 0.0 0.0 0.00 0.03 0.03 92 1000.8
20191014042351 14 111 0.0 0.0 0.00 0.03 0.03 92 1000.8
20191014041852 14 111 0.0 0.0 0.00 0.03 0.03 92 1000.7
20191014041352 14 111 0.0 0.0 0.00 0.03 0.03 92 1000.5
20191014040851 14 111 0.0 0.0 0.00 0.03 0.03 92 1000.6
20191014040351 14 111 0.0 0.0 0.00 0.03 0.03 91 1000.5
20191014035851 14 111 0.0 0.0 0.00 0.03 0.03 90 1000.6
20191014035351 14 111 0.0 0.0 0.00 0.03 0.03 90 1000.6
20191014034850 14 111 0.0 0.0 0.00 0.03 0.03 90 1000.6
20191014034349 14 111 0.0 0.0 0.00 0.03 0.03 90 1000.6
20191014033847 15 111 0.0 0.0 0.00 0.03 0.03 90 1000.6
20191014033346 15 111 0.0 0.0 0.00 0.03 0.03 90 1000.5
20191014032847 15 111 0.0 0.0 0.00 0.03 0.03 90 1000.6
20191014032345 15 111 0.0 0.0 0.00 0.03 0.03 90 1000.6
20191014031846 15 111 0.0 0.0 0.00 0.03 0.03 90 1000.6
20191014031346 15 111 0.0 0.0 0.00 0.03 0.03 89 1000.6
20191014030845 15 111 0.0 0.0 0.00 0.03 0.03 89 1000.5
20191014030344 15 111 0.0 0.0 0.00 0.03 0.03 89 1000.5
20191014025845 15 111 0.0 0.0 0.00 0.03 0.03 89 1000.4
20191014025345 15 111 0.0 0.0 0.00 0.03 0.03 89 1000.4
20191014024845 15 111 0.0 0.0 0.00 0.03 0.03 89 1000.4
20191014024345 15 111 0.0 0.0 0.00 0.03 0.03 89 1000.4
20191014023846 15 111 0.0 0.0 0.00 0.03 0.03 89 1000.3
20191014023343 15 111 0.0 0.0 0.00 0.03 0.03 88 1000.3
20191014022843 15 111 0.0 0.0 0.00 0.03 0.03 87 1000.2
20191014022343 15 111 0.0 0.0 0.00 0.03 0.03 86 1000.2
20191014021843 15 111 0.0 0.0 0.00 0.03 0.03 86 1000.2
20191014021342 16 111 0.0 0.0 0.00 0.03 0.03 85 1000.2
20191014020843 16 111 0.0 0.0 0.00 0.03 0.03 85 1000.1
20191014020343 16 111 0.0 0.0 0.00 0.03 0.03 85 1000.1
20191014015842 16 111 0.0 0.0 0.00 0.03 0.03 84 1000.1
20191014015341 16 111 0.0 0.0 0.00 0.03 0.03 84 1000.1
20191014014840 16 111 0.0 0.0 0.00 0.03 0.03 83 1000.1
20191014014338 16 111 0.0 0.0 0.00 0.03 0.03 83 1000.1
20191014013837 16 111 0.0 0.0 0.00 0.03 0.03 83 1000.0
20191014013335 16 111 0.0 0.0 0.00 0.03 0.03 82 999.9
20191014012833 17 111 0.0 0.0 0.00 0.03 0.03 81 1000.0
20191014012333 17 111 0.0 0.0 0.00 0.03 0.03 81 999.9
20191014011831 17 111 0.0 0.0 0.00 0.03 0.03 80 999.9
20191014011331 17 111 0.0 0.0 0.00 0.03 0.03 79 999.9
20191014010831 17 111 0.0 0.0 0.00 0.03 0.03 78 999.9
20191014010331 17 111 0.0 0.0 0.00 0.03 0.03 78 999.8
20191014005831 17 111 0.0 0.0 0.00 0.03 0.03 78 999.7
20191014005331 18 111 0.0 0.0 0.00 0.03 0.03 78 999.6
20191014004830 18 111 0.0 0.0 0.00 0.03 0.03 77 999.7
20191014004330 18 111 0.0 0.0 0.00 0.03 0.03 75 999.7
20191014003829 18 111 0.0 0.0 0.00 0.03 0.03 75 999.7
20191014003330 18 111 0.0 0.0 0.00 0.03 0.03 75 999.7
20191014002827 18 111 0.0 0.0 0.00 0.03 0.03 74 999.6
20191014002326 18 111 0.0 0.0 0.00 0.03 0.03 73 999.7
20191014001829 19 111 0.0 0.0 0.00 0.03 0.03 72 999.7
20191014001824 18 111 0.0 0.0 0.00 0.03 0.03 73 999.6
20191014000822 19 111 0.0 0.0 0.00 0.03 0.03 71 999.9
20191014000323 19 111 0.0 0.0 0.00 0.03 0.03 70 999.8
20191013235822 19 111 0.0 0.0 0.00 0.03 0.03 70 999.7
20191013235320 19 111 0.0 0.0 0.00 0.03 0.03 69 999.5
20191013234820 19 111 0.0 0.0 0.00 0.03 0.03 69 999.5
20191013234319 19 111 0.0 0.0 0.00 0.03 0.03 69 999.4
20191013233818 20 111 0.0 0.0 0.00 0.03 0.03 68 999.5
20191013233319 20 111 0.0 0.0 0.00 0.03 0.03 67 999.4
20191013232819 20 111 0.0 0.0 0.00 0.03 0.03 67 999.3
20191013232318 20 111 0.0 0.0 0.00 0.03 0.03 65 999.4
20191013231819 20 111 0.0 0.0 0.00 0.03 0.03 65 999.4
20191013231320 20 111 0.0 0.0 0.00 0.03 0.03 64 999.3
20191013230819 20 111 0.0 0.0 0.00 0.03 0.03 63 999.4
20191013230319 20 111 0.0 0.0 0.00 0.03 0.03 63 999.4
20191013225820 20 111 0.0 0.0 0.00 0.03 0.03 63 999.3
20191013225319 20 111 0.0 1.6 0.00 0.03 0.03 61 999.3
20191013224821 20 111 0.0 1.6 0.00 0.03 0.03 60 999.3
20191013224319 20 131 0.0 0.0 0.00 0.03 0.03 59 999.2
20191013223820 20 131 0.0 0.0 0.00 0.03 0.03 59 999.3
20191013223318 20 131 0.0 0.0 0.00 0.03 0.03 59 999.5
20191013222819 21 131 0.0 3.2 0.00 0.03 0.03 57 999.4
20191013222318 21 131 3.2 6.4 0.00 0.03 0.03 57 999.4
20191013221819 21 131 4.8 9.7 0.00 0.03 0.03 56 999.4
20191013221319 21 134 4.8 11.3 0.00 0.03 0.03 55 999.5
20191013220818 21 111 4.8 11.3 0.00 0.03 0.03 55 999.5
20191013220318 21 143 3.2 9.7 0.00 0.03 0.03 55 999.5
20191013215818 21 123 3.2 9.7 0.00 0.03 0.03 56 999.6
20191013215319 21 140 1.6 6.4 0.00 0.03 0.03 54 999.6
20191013214818 21 144 1.6 6.4 0.00 0.03 0.03 55 999.6
20191013214315 21 146 1.6 6.4 0.00 0.03 0.03 56 999.6
20191013213815 21 146 3.2 8.0 0.00 0.03 0.03 54 999.7
20191013213314 21 146 3.2 9.7 0.00 0.03 0.03 54 999.7
20191013212814 21 97 3.2 11.3 0.00 0.03 0.03 54 999.7
20191013212314 21 121 3.2 11.3 0.00 0.03 0.03 53 999.7
20191013211810 21 133 3.2 11.3 0.00 0.03 0.03 55 999.6
20191013211310 21 75 4.8 11.3 0.00 0.03 0.03 55 999.7
20191013210810 21 116 4.8 11.3 0.00 0.03 0.03 56 999.8
20191013210306 21 119 4.8 11.3 0.00 0.03 0.03 58 999.7
20191013205806 21 130 3.2 11.3 0.00 0.03 0.03 54 999.8
20191013205307 20 107 1.6 11.3 0.00 0.03 0.03 58 1000.0
20191013204806 20 115 1.6 11.3 0.00 0.03 0.03 59 1000.1
20191013204306 20 105 1.6 9.7 0.00 0.03 0.03 60 1000.0
20191013203807 20 94 3.2 11.3 0.00 0.03 0.03 57 1000.0
20191013203304 20 81 3.2 11.3 0.00 0.03 0.03 60 1000.0
20191013202804 20 117 1.6 11.3 0.00 0.03 0.03 59 1000.0
20191013202302 20 125 1.6 3.2 0.00 0.03 0.03 60 1000.0
20191013201804 20 125 1.6 4.8 0.00 0.03 0.03 60 1000.0
20191013201302 20 125 1.6 4.8 0.00 0.03 0.03 60 1000.1
20191013200800 20 125 1.6 4.8 0.00 0.03 0.03 59 1000.2
20191013200300 20 125 1.6 4.8 0.00 0.03 0.03 57 1000.2
20191013195800 20 125 1.6 9.7 0.00 0.03 0.03 58 1000.2
20191013195301 20 125 1.6 9.7 0.00 0.03 0.03 57 1000.3
20191013194800 20 125 3.2 9.7 0.00 0.03 0.03 57 1000.4
20191013194301 20 116 3.2 9.7 0.00 0.03 0.03 56 1000.5
20191013193800 20 98 3.2 9.7 0.00 0.03 0.03 55 1000.7
20191013193258 20 110 3.2 9.7 0.00 0.03 0.03 58 1000.7
20191013192800 19 125 1.6 9.7 0.00 0.03 0.03 60 1000.7
20191013192256 19 119 1.6 9.7 0.00 0.03 0.03 58 1000.6
20191013191757 19 58 1.6 9.7 0.00 0.03 0.03 59 1000.8
20191013191256 19 100 3.2 9.7 0.00 0.03 0.03 59 1000.8
20191013190757 19 119 1.6 9.7 0.00 0.03 0.03 62 1000.7
20191013190255 19 122 3.2 9.7 0.00 0.03 0.03 62 1000.9
20191013185754 19 122 3.2 9.7 0.00 0.03 0.03 60 1001.0
20191013185254 19 126 3.2 8.0 0.00 0.03 0.03 60 1001.1
20191013184753 19 134 3.2 8.0 0.00 0.03 0.03 61 1001.1
20191013184254 19 135 3.2 6.4 0.00 0.03 0.03 60 1001.3
20191013183754 19 135 3.2 8.0 0.00 0.03 0.03 58 1001.4
20191013183255 19 136 3.2 9.7 0.00 0.03 0.03 56 1001.5
20191013182754 19 121 3.2 9.7 0.00 0.03 0.03 56 1001.5
20191013182254 19 126 3.2 9.7 0.00 0.03 0.03 55 1001.6
20191013181754 19 132 4.8 9.7 0.00 0.03 0.03 60 1001.7
20191013181254 20 163 4.8 11.3 0.00 0.03 0.03 55 1001.9
20191013180754 20 135 3.2 11.3 0.00 0.03 0.03 59 1001.8
20191013180254 19 116 4.8 9.7 0.00 0.03 0.03 63 1001.8
20191013175752 18 107 3.2 9.7 0.00 0.03 0.03 65 1001.9
20191013175255 18 171 3.2 11.3 0.00 0.03 0.03 68 1002.0
20191013174759 18 122 3.2 11.3 0.00 0.03 0.03 69 1002.0
20191013174252 17 106 3.2 9.7 0.00 0.03 0.03 72 1002.0